AUA704 LOWW-EVRA

Flight info

Callsign AUA704
Flight time N/A
Altitude 39000
Route LEDVA DCT KATQA DCT BAVOK T709 VAKNU DCT BULEP DCT BOKSU DCT FONAS DCT ERIVA
Aircraft A20N/M-SDE2E3FGHIRWXY/LB1

Departure

Time 2026-05-06 10:56
Airport Vienna International Airport (LOWW)

Arrival

Time N/A
Airport Riga International Airport (EVRA)
Time Latitude Longitude Altitude Speed Heading
2026-05-06 10:55 48.07931 16.70033 8445 ft 267 kts 35°
2026-05-06 10:56 48.09475 16.71777 9088 ft 285 kts 37°
2026-05-06 10:56 48.11020 16.73641 10049 ft 288 kts 39°
2026-05-06 10:56 48.12595 16.75622 10743 ft 306 kts 40°
2026-05-06 10:56 48.14373 16.77605 11152 ft 330 kts 27°
2026-05-06 10:57 48.16617 16.78583 11765 ft 342 kts
2026-05-06 10:57 48.18973 16.78282 12689 ft 346 kts 349°
2026-05-06 10:57 48.21372 16.77658 13621 ft 351 kts 349°
2026-05-06 10:57 48.22976 16.77232 14231 ft 354 kts 349°
2026-05-06 10:58 48.26230 16.76364 15421 ft 361 kts 349°
2026-05-06 10:58 48.28725 16.75704 16297 ft 365 kts 349°
2026-05-06 10:58 48.30389 16.75265 16853 ft 368 kts 349°
2026-05-06 10:58 48.32960 16.74753 17678 ft 374 kts 356°
2026-05-06 10:59 48.35572 16.74800 18482 ft 378 kts
2026-05-06 10:59 48.38195 16.75417 19257 ft 383 kts 11°
2026-05-06 10:59 48.40802 16.76215 19994 ft 388 kts 11°
2026-05-06 10:59 48.43476 16.77012 20725 ft 392 kts 11°
2026-05-06 11:00 48.46176 16.77811 21424 ft 396 kts 11°
2026-05-06 11:00 48.49792 16.78841 22312 ft 402 kts
2026-05-06 11:00 48.51682 16.79120 22736 ft 404 kts
2026-05-06 11:00 48.54477 16.79129 23345 ft 408 kts 359°
2026-05-06 11:01 48.57330 16.79081 23931 ft 412 kts 359°
2026-05-06 11:01 48.60219 16.79049 24510 ft 415 kts 359°
2026-05-06 11:01 48.63132 16.79020 25058 ft 419 kts 359°
2026-05-06 11:01 48.66069 16.78989 25564 ft 422 kts 359°
2026-05-06 11:02 48.68977 16.79044 25990 ft 425 kts
2026-05-06 11:02 48.71888 16.79977 26398 ft 429 kts 19°
2026-05-06 11:02 48.74587 16.81955 26806 ft 432 kts 33°
2026-05-06 11:02 48.76899 16.84817 27199 ft 435 kts 44°
2026-05-06 11:03 48.79023 16.88114 27594 ft 438 kts 46°
2026-05-06 11:03 48.81125 16.91475 27970 ft 440 kts 46°
2026-05-06 11:03 48.83244 16.94851 28331 ft 443 kts 46°
2026-05-06 11:03 48.85389 16.98230 28678 ft 445 kts 46°
2026-05-06 11:04 48.87558 17.01623 29016 ft 448 kts 45°
2026-05-06 11:04 48.89712 17.04980 29341 ft 450 kts 45°
2026-05-06 11:04 48.91912 17.08408 29667 ft 452 kts 45°
2026-05-06 11:04 48.94113 17.11839 29973 ft 455 kts 45°
2026-05-06 11:05 48.96332 17.15304 30297 ft 457 kts 45°
2026-05-06 11:05 48.98534 17.18747 30604 ft 459 kts 45°
2026-05-06 11:05 49.00799 17.22198 30885 ft 461 kts 42°
2026-05-06 11:05 49.03299 17.25290 31218 ft 463 kts 35°
2026-05-06 11:06 49.06006 17.27960 31587 ft 463 kts 31°
2026-05-06 11:06 49.08743 17.30545 31985 ft 461 kts 32°
2026-05-06 11:06 49.11467 17.33145 32369 ft 461 kts 32°
2026-05-06 11:06 49.14184 17.35743 32739 ft 460 kts 32°
2026-05-06 11:07 49.16860 17.38301 33097 ft 459 kts 32°
2026-05-06 11:07 49.19585 17.40906 33432 ft 459 kts 32°
2026-05-06 11:07 49.22298 17.43501 33786 ft 458 kts 32°
2026-05-06 11:07 49.24963 17.46050 34146 ft 456 kts 32°
2026-05-06 11:08 49.27662 17.48637 34468 ft 455 kts 32°
2026-05-06 11:08 49.30356 17.51221 34764 ft 455 kts 32°
2026-05-06 11:08 49.33039 17.53799 35050 ft 454 kts 32°
2026-05-06 11:08 49.35685 17.56344 35323 ft 454 kts 32°
2026-05-06 11:09 49.38355 17.58916 35577 ft 454 kts 32°
2026-05-06 11:09 49.41033 17.61499 35827 ft 453 kts 32°
2026-05-06 11:09 49.43708 17.64082 36081 ft 453 kts 32°
2026-05-06 11:09 49.46368 17.66654 36324 ft 452 kts 32°
2026-05-06 11:10 49.49042 17.69243 36517 ft 452 kts 32°
2026-05-06 11:10 49.51677 17.71798 36705 ft 453 kts 32°
2026-05-06 11:10 49.54344 17.74387 36895 ft 453 kts 32°
2026-05-06 11:10 49.57015 17.76983 37115 ft 452 kts 32°
2026-05-06 11:11 49.59684 17.79581 37287 ft 452 kts 32°
2026-05-06 11:11 49.62350 17.82179 37468 ft 452 kts 32°
2026-05-06 11:11 49.64979 17.84745 37635 ft 452 kts 32°
2026-05-06 11:11 49.67657 17.87361 37761 ft 453 kts 32°
2026-05-06 11:12 49.70325 17.89971 37924 ft 453 kts 32°
2026-05-06 11:12 49.72995 17.92587 38114 ft 452 kts 32°
2026-05-06 11:12 49.75658 17.95200 38248 ft 453 kts 32°
2026-05-06 11:12 49.78289 17.97784 38395 ft 453 kts 32°
2026-05-06 11:13 49.80949 18.00400 38526 ft 453 kts 32°
2026-05-06 11:13 49.83607 18.03018 38655 ft 453 kts 32°
2026-05-06 11:13 49.86279 18.05653 38803 ft 453 kts 32°
2026-05-06 11:13 49.88940 18.08280 38929 ft 453 kts 32°
2026-05-06 11:14 49.91563 18.10875 39008 ft 454 kts 32°
2026-05-06 11:14 49.96870 18.16331 39012 ft 459 kts 37°
2026-05-06 11:15 50.01688 18.22980 39010 ft 465 kts 46°
2026-05-06 11:15 50.05830 18.30705 39005 ft 469 kts 52°
2026-05-06 11:16 50.09879 18.38738 39012 ft 472 kts 52°
2026-05-06 11:16 50.13933 18.46830 39013 ft 474 kts 52°
2026-05-06 11:17 50.17960 18.54930 39011 ft 475 kts 52°
2026-05-06 11:17 50.22017 18.63127 39010 ft 476 kts 52°
2026-05-06 11:18 50.26052 18.71300 39013 ft 477 kts 52°
2026-05-06 11:18 50.30106 18.79537 39007 ft 478 kts 52°
2026-05-06 11:19 50.34161 18.87802 39004 ft 478 kts 52°
2026-05-06 11:19 50.38187 18.96036 39003 ft 478 kts 52°
2026-05-06 11:20 50.42233 19.04336 39003 ft 478 kts 52°
2026-05-06 11:20 50.46330 19.12606 39008 ft 478 kts 49°
2026-05-06 11:21 50.51080 19.19852 39007 ft 478 kts 39°
2026-05-06 11:21 50.56171 19.26634 39006 ft 478 kts 40°
2026-05-06 11:22 50.61213 19.33395 39003 ft 479 kts 40°
2026-05-06 11:22 50.66294 19.40205 39000 ft 479 kts 40°
2026-05-06 11:23 50.71375 19.47031 39015 ft 479 kts 40°
2026-05-06 11:23 50.76424 19.53837 39007 ft 479 kts 40°
2026-05-06 11:24 50.81501 19.60699 39011 ft 479 kts 40°
2026-05-06 11:24 50.86535 19.67524 39002 ft 479 kts 40°
2026-05-06 11:25 50.91598 19.74407 39007 ft 479 kts 40°
2026-05-06 11:25 50.96625 19.81264 39008 ft 478 kts 40°
2026-05-06 11:26 51.01676 19.88173 39007 ft 478 kts 40°
2026-05-06 11:26 51.06694 19.95057 39003 ft 478 kts 40°
2026-05-06 11:27 51.11744 20.02005 39012 ft 478 kts 40°
2026-05-06 11:27 51.16759 20.08927 38998 ft 478 kts 41°
2026-05-06 11:28 51.21791 20.15892 39011 ft 478 kts 41°
2026-05-06 11:28 51.26826 20.22884 39005 ft 478 kts 41°
2026-05-06 11:29 51.31830 20.29852 39009 ft 478 kts 41°
2026-05-06 11:29 51.36857 20.36874 39007 ft 478 kts 41°
2026-05-06 11:30 51.41851 20.43871 39006 ft 478 kts 41°
2026-05-06 11:30 51.46840 20.50881 39010 ft 478 kts 41°
2026-05-06 11:31 51.51857 20.57953 39009 ft 478 kts 41°
2026-05-06 11:31 51.56854 20.65020 38998 ft 478 kts 41°
2026-05-06 11:32 51.61821 20.72064 39002 ft 478 kts 41°
2026-05-06 11:32 51.66832 20.79192 39008 ft 478 kts 41°
2026-05-06 11:33 51.71784 20.86257 39014 ft 478 kts 41°
2026-05-06 11:33 51.76767 20.93390 39003 ft 478 kts 41°
2026-05-06 11:34 51.81745 21.00536 39008 ft 478 kts 41°
2026-05-06 11:34 51.86685 21.07650 39010 ft 478 kts 41°
2026-05-06 11:35 51.91666 21.14846 39013 ft 478 kts 41°
2026-05-06 11:35 51.96634 21.22044 39007 ft 478 kts 41°
2026-05-06 11:36 52.01594 21.29253 39005 ft 478 kts 41°
2026-05-06 11:36 52.06519 21.36434 39008 ft 478 kts 41°
2026-05-06 11:37 52.11474 21.43682 39008 ft 478 kts 42°
2026-05-06 11:37 52.16422 21.50941 39005 ft 478 kts 42°
2026-05-06 11:38 52.21329 21.58162 39006 ft 478 kts 42°
2026-05-06 11:38 52.26278 21.65469 39003 ft 478 kts 42°
2026-05-06 11:39 52.31216 21.72780 39010 ft 478 kts 42°
2026-05-06 11:39 52.36124 21.80072 39007 ft 478 kts 42°
2026-05-06 11:40 52.41047 21.87409 39011 ft 478 kts 42°
2026-05-06 11:40 52.45981 21.94786 39009 ft 478 kts 42°
2026-05-06 11:41 52.50899 22.02160 39003 ft 478 kts 42°
2026-05-06 11:41 52.55784 22.09510 39005 ft 478 kts 42°
2026-05-06 11:42 52.60706 22.16938 39003 ft 478 kts 42°
2026-05-06 11:42 52.65609 22.24363 39007 ft 478 kts 42°
2026-05-06 11:43 52.70477 22.31753 39014 ft 478 kts 42°
2026-05-06 11:43 52.74681 22.37701 39003 ft 478 kts 34°
2026-05-06 11:44 52.81562 22.43465 39011 ft 477 kts 18°
2026-05-06 11:44 52.84771 22.44931 39012 ft 477 kts 13°
2026-05-06 11:44 52.91213 22.47538 39004 ft 477 kts 13°
2026-05-06 11:45 52.96582 22.49727 39008 ft 477 kts 13°
2026-05-06 11:45 53.03043 22.52355 39011 ft 477 kts 13°
2026-05-06 11:46 53.09508 22.54988 39011 ft 478 kts 13°
2026-05-06 11:46 53.15968 22.57625 39006 ft 478 kts 13°
2026-05-06 11:47 53.22394 22.60257 39009 ft 478 kts 13°
2026-05-06 11:47 53.28880 22.62922 39007 ft 478 kts 13°
2026-05-06 11:48 53.35289 22.65564 38998 ft 478 kts 13°
2026-05-06 11:48 53.41754 22.68237 39011 ft 478 kts 13°
2026-05-06 11:49 53.48184 22.70904 39011 ft 478 kts 13°
2026-05-06 11:49 53.54655 22.73596 39010 ft 478 kts 13°
2026-05-06 11:50 53.61082 22.76279 38997 ft 478 kts 13°
2026-05-06 11:50 53.67538 22.78982 39007 ft 478 kts 14°
2026-05-06 11:51 53.73996 22.81694 39003 ft 478 kts 14°
2026-05-06 11:51 53.80455 22.84415 39007 ft 478 kts 14°
2026-05-06 11:52 53.86886 22.87134 39004 ft 478 kts 14°
2026-05-06 11:52 53.93352 22.89875 39007 ft 478 kts 14°
2026-05-06 11:53 53.99821 22.92627 39007 ft 478 kts 14°
2026-05-06 11:53 54.06237 22.95365 39008 ft 478 kts 14°
2026-05-06 11:54 54.12695 22.98130 39073 ft 476 kts 14°
2026-05-06 11:54 54.15916 22.99512 39232 ft 473 kts 14°
2026-05-06 11:54 54.19113 23.00886 39278 ft 473 kts 14°
2026-05-06 11:55 54.25427 23.03607 39077 ft 468 kts 14°
2026-05-06 11:55 54.28546 23.05255 38706 ft 470 kts 20°
2026-05-06 11:55 54.31559 23.07473 38340 ft 471 kts 26°
2026-05-06 11:56 54.34426 23.10201 38031 ft 471 kts 32°
2026-05-06 11:56 54.37124 23.13278 37728 ft 471 kts 33°
2026-05-06 11:56 54.39862 23.16400 37422 ft 471 kts 33°
2026-05-06 11:56 54.42596 23.19506 37122 ft 471 kts 33°
2026-05-06 11:57 54.45336 23.22630 36813 ft 471 kts 33°
2026-05-06 11:57 54.48066 23.25761 36525 ft 471 kts 33°
2026-05-06 11:57 54.50757 23.28859 36234 ft 471 kts 33°
2026-05-06 11:57 54.53478 23.32001 35940 ft 471 kts 33°
2026-05-06 11:58 54.56202 23.35153 35628 ft 471 kts 33°
2026-05-06 11:58 54.58906 23.38287 35311 ft 472 kts 34°
2026-05-06 11:58 54.61633 23.41454 35000 ft 473 kts 34°
2026-05-06 11:58 54.64372 23.44639 34676 ft 473 kts 34°
2026-05-06 11:59 54.67114 23.47833 34352 ft 474 kts 34°
2026-05-06 11:59 54.69850 23.51025 34080 ft 474 kts 34°
2026-05-06 11:59 54.75237 23.57326 34007 ft 464 kts 34°
2026-05-06 12:00 54.80551 23.63561 34007 ft 457 kts 34°
2026-05-06 12:00 54.85736 23.69664 34008 ft 450 kts 34°
2026-05-06 12:01 54.90881 23.75740 34005 ft 444 kts 34°
2026-05-06 12:01 54.95961 23.81758 34008 ft 438 kts 34°
2026-05-06 12:02 55.01103 23.87294 34008 ft 433 kts 26°
2026-05-06 12:02 55.06704 23.90997 34008 ft 428 kts 16°
2026-05-06 12:03 55.12341 23.94029 34007 ft 424 kts 17°
2026-05-06 12:03 55.17969 23.97076 34007 ft 420 kts 17°
2026-05-06 12:04 55.23540 24.00079 33756 ft 424 kts 17°
2026-05-06 12:04 55.26400 24.01620 33277 ft 434 kts 17°
2026-05-06 12:04 55.29295 24.03182 32761 ft 445 kts 17°
2026-05-06 12:05 55.32297 24.04805 32236 ft 456 kts 17°
2026-05-06 12:05 55.35357 24.06462 31713 ft 465 kts 17°
2026-05-06 12:05 55.38481 24.08156 31188 ft 473 kts 17°
2026-05-06 12:05 55.41670 24.09889 30678 ft 479 kts 17°
2026-05-06 12:06 55.44822 24.11605 30284 ft 481 kts 17°
2026-05-06 12:06 55.48040 24.13359 29913 ft 482 kts 17°
2026-05-06 12:06 55.51255 24.15115 29488 ft 480 kts 17°
2026-05-06 12:06 55.54435 24.16855 28964 ft 477 kts 17°
2026-05-06 12:07 55.57565 24.18571 28445 ft 474 kts 17°
2026-05-06 12:07 55.60725 24.20305 27924 ft 473 kts 17°
2026-05-06 12:07 55.63875 24.22037 27392 ft 471 kts 17°
2026-05-06 12:07 55.66964 24.23738 26874 ft 470 kts 17°
2026-05-06 12:08 55.70085 24.25460 26349 ft 469 kts 17°
2026-05-06 12:08 55.73199 24.27181 25824 ft 468 kts 17°
2026-05-06 12:08 55.76302 24.28899 25300 ft 467 kts 17°
2026-05-06 12:08 55.79404 24.30619 24780 ft 466 kts 17°
2026-05-06 12:09 55.82499 24.32338 24249 ft 465 kts 17°
2026-05-06 12:09 55.85595 24.34059 23724 ft 464 kts 17°
2026-05-06 12:09 55.88679 24.35778 23199 ft 464 kts 17°
2026-05-06 12:09 55.91735 24.37484 22676 ft 463 kts 17°
2026-05-06 12:10 55.94812 24.39204 22151 ft 462 kts 17°
2026-05-06 12:10 55.97879 24.40922 21628 ft 461 kts 17°
2026-05-06 12:10 56.00939 24.42638 21100 ft 460 kts 17°
2026-05-06 12:10 56.03955 24.44333 20581 ft 459 kts 17°
2026-05-06 12:11 56.07005 24.46049 20055 ft 458 kts 17°
2026-05-06 12:11 56.10050 24.47766 19530 ft 456 kts 17°
2026-05-06 12:11 56.13041 24.49454 19008 ft 455 kts 17°
2026-05-06 12:11 56.16060 24.51162 18499 ft 448 kts 17°
2026-05-06 12:12 56.18969 24.52811 17973 ft 427 kts 17°
2026-05-06 12:12 56.21738 24.54383 17487 ft 407 kts 17°
2026-05-06 12:12 56.24370 24.55880 17111 ft 387 kts 17°
2026-05-06 12:12 56.26861 24.57298 16639 ft 371 kts 17°
2026-05-06 12:13 56.29287 24.58680 16138 ft 359 kts 17°
2026-05-06 12:13 56.31633 24.60017 15636 ft 348 kts 17°
2026-05-06 12:13 56.33914 24.61320 15128 ft 338 kts 17°
2026-05-06 12:13 56.36187 24.62053 14635 ft 328 kts 358°
2026-05-06 12:14 56.38367 24.61325 14131 ft 319 kts 338°
2026-05-06 12:14 56.40298 24.59477 13639 ft 311 kts 329°
2026-05-06 12:14 56.42151 24.57529 13136 ft 305 kts 329°
2026-05-06 12:14 56.43969 24.55621 12634 ft 299 kts 329°
2026-05-06 12:15 56.45802 24.53911 12133 ft 294 kts 336°
2026-05-06 12:15 56.47649 24.52492 11640 ft 289 kts 336°
2026-05-06 12:15 56.49487 24.51059 11142 ft 285 kts 336°
2026-05-06 12:15 56.51269 24.49534 10650 ft 280 kts 325°
2026-05-06 12:16 56.52585 24.47072 10364 ft 267 kts 303°
2026-05-06 12:16 56.53577 24.44370 10110 ft 256 kts 303°
2026-05-06 12:16 56.54562 24.41689 9857 ft 254 kts 303°
2026-05-06 12:16 56.55544 24.39018 9594 ft 252 kts 303°
2026-05-06 12:17 56.56518 24.36365 9304 ft 253 kts 303°
2026-05-06 12:17 56.57485 24.33723 8915 ft 257 kts 303°
2026-05-06 12:17 56.58485 24.30992 8563 ft 258 kts 303°
2026-05-06 12:17 56.59469 24.28302 8135 ft 253 kts 303°
2026-05-06 12:18 56.60436 24.25657 7639 ft 250 kts 303°
2026-05-06 12:18 56.61382 24.23063 7135 ft 247 kts 303°
2026-05-06 12:18 56.62329 24.20468 6637 ft 245 kts 303°
2026-05-06 12:18 56.63266 24.17892 6144 ft 243 kts 303°
2026-05-06 12:19 56.64194 24.15335 5639 ft 242 kts 303°
2026-05-06 12:19 56.65119 24.12793 5137 ft 240 kts 303°
2026-05-06 12:19 56.66028 24.10297 4631 ft 238 kts 303°
2026-05-06 12:19 56.66936 24.07792 4192 ft 235 kts 303°
2026-05-06 12:20 56.67811 24.05376 4024 ft 219 kts 303°
2026-05-06 12:20 56.68607 24.03176 4031 ft 196 kts 303°
2026-05-06 12:20 56.69313 24.01222 4004 ft 173 kts 303°
2026-05-06 12:20 56.69933 23.99508 4002 ft 152 kts 303°
2026-05-06 12:21 56.70487 23.97976 3984 ft 142 kts 303°
2026-05-06 12:21 56.71036 23.96450 4007 ft 148 kts 303°
2026-05-06 12:21 56.71633 23.94826 4002 ft 161 kts 307°
2026-05-06 12:21 56.72578 23.93750 3868 ft 165 kts 350°
2026-05-06 12:22 56.73719 23.93753 3565 ft 163 kts
2026-05-06 12:22 56.74837 23.94016 3201 ft 160 kts
2026-05-06 12:22 56.75899 23.94300 3036 ft 154 kts
2026-05-06 12:22 56.76993 23.94548 3004 ft 158 kts
2026-05-06 12:23 56.78082 23.94753 2784 ft 155 kts
2026-05-06 12:23 56.79151 23.94944 2476 ft 152 kts
2026-05-06 12:23 56.80185 23.95094 2300 ft 147 kts
2026-05-06 12:23 56.81190 23.95247 2042 ft 143 kts
2026-05-06 12:24 56.82181 23.95376 1815 ft 142 kts
2026-05-06 12:24 56.83168 23.95539 1591 ft 140 kts
2026-05-06 12:24 56.84136 23.95699 1433 ft 140 kts
2026-05-06 12:24 56.85114 23.95851 1281 ft 140 kts
2026-05-06 12:25 56.86086 23.96044 1077 ft 147 kts
2026-05-06 12:25 56.87117 23.96237 833 ft 150 kts
2026-05-06 12:25 56.87873 23.96365 679 ft 143 kts
2026-05-06 12:25 56.88489 23.96459 555 ft 139 kts
2026-05-06 12:26 56.89426 23.96610 330 ft 132 kts
2026-05-06 12:26 56.90362 23.96769 122 ft 137 kts
2026-05-06 12:26 56.91247 23.96944 61 ft 119 kts
2026-05-06 12:26 56.92171 23.97118 299 ft 147 kts
2026-05-06 12:27 56.93216 23.97292 1079 ft 155 kts
2026-05-06 12:27 56.94251 23.97950 1978 ft 165 kts 41°
2026-05-06 12:27 56.94896 23.99755 2731 ft 186 kts 68°
2026-05-06 12:27 56.95034 24.02381 2985 ft 233 kts 101°
2026-05-06 12:28 56.94299 24.05232 3005 ft 251 kts 129°
2026-05-06 12:28 56.93003 24.07142 3002 ft 231 kts 160°
2026-05-06 12:28 56.91416 24.07764 3015 ft 252 kts 179°
2026-05-06 12:28 56.89653 24.07621 3005 ft 245 kts 185°
2026-05-06 12:29 56.88007 24.07411 2999 ft 229 kts 185°
2026-05-06 12:29 56.86477 24.07215 3001 ft 212 kts 185°
2026-05-06 12:29 56.85059 24.07033 2992 ft 200 kts 185°
2026-05-06 12:29 56.83719 24.06863 2998 ft 185 kts 185°
2026-05-06 12:30 56.82487 24.06707 3001 ft 170 kts 185°
2026-05-06 12:30 56.81341 24.06564 2990 ft 168 kts 185°
2026-05-06 12:30 56.80079 24.06401 3026 ft 189 kts 185°
2026-05-06 12:30 56.78750 24.06242 3015 ft 193 kts 184°
2026-05-06 12:31 56.77419 24.06106 3012 ft 191 kts 184°
2026-05-06 12:31 56.76101 24.05978 3010 ft 192 kts 184°
2026-05-06 12:31 56.74761 24.05846 3005 ft 192 kts 184°
2026-05-06 12:31 56.73427 24.05713 3007 ft 191 kts 184°
2026-05-06 12:32 56.72095 24.05579 3007 ft 191 kts 184°
2026-05-06 12:32 56.70779 24.05445 3007 ft 191 kts 184°
2026-05-06 12:32 56.69443 24.05307 3023 ft 193 kts 185°
2026-05-06 12:32 56.68226 24.04438 3006 ft 189 kts 222°
2026-05-06 12:33 56.67599 24.02401 3008 ft 188 kts 261°
2026-05-06 12:33 56.67582 24.02163 3007 ft 188 kts 265°
2026-05-06 12:35 56.67627 24.01047 3005 ft 183 kts 284°
2026-05-06 12:35 56.68258 23.99124 3013 ft 176 kts 309°
2026-05-06 12:36 56.69045 23.97414 3010 ft 179 kts 310°
2026-05-06 12:36 56.69856 23.95761 3002 ft 175 kts 321°
2026-05-06 12:36 56.71005 23.95084 3013 ft 178 kts
2026-05-06 12:36 56.72253 23.95178 3025 ft 180 kts
2026-05-06 12:37 56.73489 23.95303 3003 ft 176 kts
2026-05-06 12:37 56.74717 23.95423 3021 ft 178 kts
2026-05-06 12:37 56.75918 23.95119 3117 ft 166 kts 347°
2026-05-06 12:37 56.77049 23.94767 3015 ft 165 kts 351°
2026-05-06 12:38 56.78195 23.94630 2797 ft 169 kts
2026-05-06 12:38 56.79385 23.94876 2546 ft 173 kts
2026-05-06 12:38 56.80573 23.95136 2244 ft 174 kts
2026-05-06 12:38 56.81785 23.95351 2030 ft 174 kts
2026-05-06 12:39 56.82961 23.95561 1822 ft 160 kts
2026-05-06 12:39 56.84019 23.95730 1621 ft 150 kts
2026-05-06 12:39 56.85063 23.95903 1249 ft 150 kts
2026-05-06 12:39 56.86094 23.96042 936 ft 145 kts
2026-05-06 12:40 56.87079 23.96197 716 ft 144 kts
2026-05-06 12:40 56.88086 23.96381 569 ft 142 kts
2026-05-06 12:40 56.88876 23.96515 407 ft 133 kts
2026-05-06 12:40 56.89390 23.96604 303 ft 128 kts
2026-05-06 12:41 56.90280 23.96753 143 ft 130 kts
2026-05-06 12:41 56.91184 23.96930 46 ft 123 kts
2026-05-06 12:41 56.91861 23.97031 42 ft 68 kts